Location: Croydon
(51.3762°N, 0.0982°W)
Time: 17:28:57
(UTC+00:00)

Envisat - Pass Details

Date: 28 February 2019
Orbit: 764 x 766 km, 98.2° (Epoch: 19 March)

Event Time Altitude Azimuth Distance (km) Brightness Sun altitude
Rises 05:56:53 0° 30° (NNE) 3,244 6.7 -8.8°
Reaches altitude 10° 06:00:52 10° 61° (ENE) 2,310 6.5 -8.2°
Maximum altitude 06:02:46 12° 84° (E) 2,170 6.9 -7.9°
Drops below altitude 10° 06:04:41 10° 106° (ESE) 2,303 7.1 -7.6°
Sets 06:08:37 0° 137° (SE) 3,222 7.0 -7.0°
